This demonstration page uses our WeatherBlox Daily Observations layout. Learn more.

Left ArrowRight Arrow

40.92945, -100.16068

Hourly Observations for May 27, 2022

Temp ( °F °C ) Dew Point ( °F °C ) Humidity (%) Winds ( mph kmh ) Pressure ( in mb ) Visibility ( mi km ) Precip ( " mm )
12:15 am 00:15 Clear 57 13.9 49 9.4 74 74 SE 3 6 29.94 1014 10 16 0.00 0.00
12:35 am 00:35 Clear 51 10.7 48 8.9 89 89 Calm 29.97 1015 10 16 0.00 0.00
12:55 am 00:55 Clear 57 13.7 49 9.7 77 77 Calm 29.95 1014 10 16 0.00 0.00
1:15 am 01:15 Clear 54 12.2 49 9.4 83 83 Calm 29.96 1015 10 16 0.00 0.00
1:35 am 01:35 Clear 55 12.6 49 9.4 81 81 ESE 3 6 29.96 1014 10 16 0.00 0.00
1:55 am 01:55 Clear 51 10.6 48 9 90 90 ESE 3 6 29.98 1015 10 16 0.00 0.00
2:15 am 02:15 Clear 53 11.6 48 9 84 84 SE 5 7 29.97 1015 10 16 0.00 0.00
2:35 am 02:35 Clear 53 11.7 48 8.7 82 82 ESE 3 6 29.97 1015 10 16 0.00 0.00
2:55 am 02:55 Clear 50 9.9 47 8.3 90 90 E 3 6 29.98 1015 10 16 0.00 0.00
3:15 am 03:15 Clear 50 10.1 48 8.9 92 92 Calm 29.98 1015 10 16 0.00 0.00
3:35 am 03:35 Clear 49 9.4 47 8.2 92 92 E 6 9 29.99 1015 10 16 0.00 0.00
3:55 am 03:55 Clear 50 10 47 8.2 89 89 E 6 9 29.98 1015 10 16 0.00 0.00
4:15 am 04:15 Clear 50 10.1 47 8.5 90 90 E 3 6 29.99 1016 10 16 0.00 0.00
4:35 am 04:35 Clear 49 9.2 46 7.9 92 92 ESE 3 6 30.00 1016 10 16 0.00 0.00
4:55 am 04:55 Clear 50 9.8 47 8.5 92 92 Calm 29.98 1015 10 16 0.00 0.00
5:15 am 05:15 Clear 48 9 46 8 94 94 Calm 29.99 1016 10 16 0.00 0.00
5:35 am 05:35 Clear 48 8.8 46 7.6 92 92 Calm 29.99 1016 10 16 0.00 0.00
5:55 am 05:55 Clear 47 8.1 45 7.4 95 95 Calm 30.00 1016 7 11 0.00 0.00
6:15 am 06:15 Sunny with Mist and Fog 47 8.2 45 7.4 95 95 Calm 30.00 1016 5 8 0.00 0.00
6:35 am 06:35 Sunny with Mist and Fog 47 8.1 46 7.5 96 96 Calm 30.00 1016 4 6 0.00 0.00
6:55 am 06:55 Sunny with Mist and Fog 47 8.1 45 7.4 95 95 Calm 30.00 1016 4 6 0.00 0.00
7:15 am 07:15 Sunny with Mist and Fog 49 9.7 48 9.1 96 96 Calm 29.98 1015 4 6 0.00 0.00
7:35 am 07:35 Sunny with Mist and Fog 52 11.3 50 10.1 92 92 Calm 29.97 1015 5 8 0.00 0.00
7:55 am 07:55 Sunny 56 13.3 52 11.1 87 87 Calm 29.95 1014 10 16 0.00 0.00
8:15 am 08:15 Sunny 58 14.7 51 10.7 77 77 Calm 29.94 1014 10 16 0.00 0.00
8:35 am 08:35 Sunny 60 15.5 53 11.4 77 77 E 3 6 29.93 1014 10 16 0.00 0.00
8:55 am 08:55 Sunny 62 16.8 53 11.4 71 71 SE 3 6 29.91 1013 10 16 0.00 0.00
9:15 am 09:15 Sunny 64 18 53 11.8 67 67 SSE 5 7 29.91 1013 10 16 0.00 0.00
9:35 am 09:35 Sunny 66 18.8 54 12.3 66 66 SSE 3 6 29.89 1012 10 16 0.00 0.00
9:55 am 09:55 Sunny 68 19.8 55 12.5 63 63 SSE 6 9 29.88 1012 10 16 0.00 0.00
10:15 am 10:15 Sunny 70 21.1 55 12.9 60 60 SE 6 9 29.86 1011 10 16 0.00 0.00
10:35 am 10:35 Sunny 72 22.3 55 12.8 55 55 SSE 8 13 29.84 1011 10 16 0.00 0.00
10:55 am 10:55 Sunny 74 23.6 52 11.2 46 46 S 12 19 29.82 1010 10 16 0.00 0.00
11:15 am 11:15 Sunny 77 24.8 55 12.8 47 47 S 9 15 29.81 1010 10 16 0.00 0.00
11:35 am 11:35 Sunny 78 25.5 54 12.3 44 44 S 10 17 29.80 1009 10 16 0.00 0.00
11:55 am 11:55 Sunny 79 26 55 12.9 44 44 S 7 11 29.78 1009 10 16 0.00 0.00
12:15 pm 12:15 Sunny 80 26.8 55 13 43 43 S 9 15 29.78 1008 10 16 0.00 0.00
12:35 pm 12:35 Sunny 82 27.5 55 13 41 41 S 9 15 29.76 1008 10 16 0.00 0.00
12:55 pm 12:55 Sunny 82 28 56 13.4 41 41 S 12 19 29.76 1008 10 16 0.00 0.00
1:15 pm 13:15 Sunny 84 28.7 55 12.8 38 38 S 13 20 29.74 1007 10 16 0.00 0.00
1:35 pm 13:35 Sunny 85 29.4 54 12 34 34 S 10 17 29.71 1006 10 16 0.00 0.00
1:55 pm 13:55 Sunny 86 30 53 11.6 32 32 S 16 26 29.71 1006 10 16 0.00 0.00
2:15 pm 14:15 Sunny 86 30 53 11.4 32 32 S 13 20 29.70 1006 10 16 0.00 0.00
2:35 pm 14:35 Sunny 87 30.4 52 11.3 31 31 S 8 13 29.69 1005 10 16 0.00 0.00
2:55 pm 14:55 Sunny 87 30.6 53 11.6 31 31 S 14 22 29.68 1005 10 16 0.00 0.00
3:15 pm 15:15 Sunny 88 31.1 51 10.8 29 29 S 14 22 29.66 1004 10 16 0.00 0.00
3:35 pm 15:35 Sunny 88 31.2 54 12.1 31 31 S 15 24 29.65 1004 10 16 0.00 0.00
3:55 pm 15:55 Sunny 87 30.6 53 11.9 32 32 S 15 24 29.65 1004 10 16 0.00 0.00
4:15 pm 16:15 Sunny 89 31.4 52 11 28 28 S 15 24 29.63 1003 10 16 0.00 0.00
4:35 pm 16:35 Sunny 88 31.3 54 12 31 31 S 16 26 29.63 1003 10 16 0.00 0.00
4:55 pm 16:55 Sunny 88 30.9 54 12.1 31 31 SSE 17 28 29.61 1003 10 16 0.00 0.00
5:15 pm 17:15 Sunny 88 30.9 53 11.9 31 31 S 18 30 29.60 1002 10 16 0.00 0.00
5:35 pm 17:35 Sunny 88 31.1 52 11 29 29 S 17 28 29.59 1002 10 16 0.00 0.00
5:55 pm 17:55 Sunny 88 31.1 51 10.3 28 28 S 18 30 29.59 1002 10 16 0.00 0.00
6:15 pm 18:15 Sunny 88 31 53 11.8 31 31 SSE 15 24 29.58 1002 10 16 0.00 0.00
6:35 pm 18:35 Sunny 87 30.6 52 11.3 30 30 SSE 21 33 29.59 1002 10 16 0.00 0.00
6:55 pm 18:55 Sunny 85 29.6 54 12 34 34 SSE 20 31 29.58 1002 10 16 0.00 0.00
7:15 pm 19:15 Sunny 84 28.8 54 12.2 36 36 SSE 16 26 29.59 1002 10 16 0.00 0.00
7:35 pm 19:35 Sunny 83 28.2 54 12.1 37 37 SSE 17 28 29.59 1002 10 16 0.00 0.00
7:55 pm 19:55 Sunny 82 27.5 54 12.4 39 39 SSE 14 22 29.60 1002 10 16 0.00 0.00
8:15 pm 20:15 Sunny 81 27 55 12.8 41 41 SSE 13 20 29.60 1003 10 16 0.00 0.00
8:35 pm 20:35 Sunny 80 26.7 55 12.8 42 42 SSE 15 24 29.60 1002 10 16 0.00 0.00
8:55 pm 20:55 Sunny 78 25.8 56 13.2 46 46 SSE 15 24 29.60 1003 10 16 0.00 0.00
9:15 pm 21:15 Clear 77 25.1 56 13.5 49 49 SE 14 22 29.62 1003 10 16 0.00 0.00
9:35 pm 21:35 Clear 76 24.6 57 13.7 51 51 SSE 14 22 29.62 1003 10 16 0.00 0.00
9:55 pm 21:55 Clear 76 24.2 57 14 53 53 SSE 12 19 29.64 1004 10 16 0.00 0.00
10:15 pm 22:15 Clear 75 23.8 57 14 54 54 Calm 29.66 1004 10 16 0.00 0.00
10:35 pm 22:35 Clear 79 26.2 55 12.7 43 43 WSW 17 28 29.69 1005 10 16 0.00 0.00
10:55 pm 22:55 Clear 77 25.1 55 12.9 47 47 S 9 15 29.68 1005 10 16 0.00 0.00
11:15 pm 23:15 Clear 77 25.2 55 12.5 45 45 S 13 20 29.66 1004 10 16 0.00 0.00
11:35 pm 23:35 Clear 76 24.5 55 12.7 48 48 SSE 10 17 29.65 1004 10 16 0.00 0.00
11:55 pm 23:55 Clear 75 24 55 12.6 49 49 S 14 22 29.63 1003 10 16 0.00 0.00

Powered by AerisWeather